GFSNIL_prec_cloud_276.txt.gz
Cloud_Cover
4 5 0 0 70 100 59 96 53 7 5 5 3 5 5 5 14 97 99 100 100 100
5 5 5 5 6 39 97 100 50 5 2 0 0 0 0 0 23 13 19 86 56 100
100 17 11 5 47 3 2 4 10 5 5 0 0 0 0 0 0 8 45 14 15 3
100 100 94 22 26 5 0 0 0 0 0 1 0 2 1 0 0 0 2 42 87 100
98 100 64 3 5 5 55 15 0 0 0 0 0 0 0 3 0 0 0 0 2 1
24 16 89 6 0 0 1 2 100 24 0 4 2 0 0 84 0 0 0 0 0 0
5 5 5 66 23 0 1 81 100 100 23 5 1 10 82 5 0 0 0 0 0 0
5 3 5 34 100 5 34 66 16 64 83 31 3 3 5 5 52 12 11 6 0 0
5 5 7 73 88 100 97 14 60 100 100 70 5 5 0 5 3 4 4 13 5 5
8 5 6 41 69 100 100 100 98 100 98 24 5 5 0 0 5 4 0 0 0 0
100 21 15 3 5 76 100 100 100 98 91 58 6 22 12 4 1 0 0 0 0 0
100 100 19 0 0 7 100 100 100 100 100 84 62 8 5 24 5 0 0 0 0 0
100 46 100 36 4 11 98 100 100 100 99 100 53 35 16 83 51 5 2 0 0 0
100 100 50 5 39 5 80 100 100 100 100 100 100 30 5 5 5 4 2 0 0 1

GFSNIL_prec_cloud_279.txt.gz
Cloud_Cover
0 5 5 5 1 7 61 100 100 94 100 77 5 0 0 6 15 76 85 37 17 96
2 6 5 45 10 5 7 62 100 100 78 51 5 5 0 0 4 5 10 46 93 74
2 57 51 5 5 15 14 1 24 96 90 100 100 29 5 0 0 0 1 5 5 20
0 98 5 13 5 16 5 5 5 15 17 15 14 5 5 5 5 5 0 0 0 0
3 14 41 61 5 0 4 4 0 5 5 4 0 0 0 4 5 2 0 2 2 5
3 5 4 5 68 53 3 3 4 5 5 0 5 0 0 34 21 0 0 0 0 2
33 5 5 5 12 77 46 5 15 0 20 5 14 5 27 4 2 3 0 0 0 0
100 100 100 68 25 84 100 100 84 36 5 5 0 3 0 3 5 3 1 5 4 7
100 100 100 100 100 89 92 100 74 100 87 96 5 5 16 5 0 0 0 1 4 0
100 100 100 100 97 85 15 5 41 97 97 74 70 98 25 9 12 57 39 18 5 0
100 100 100 74 100 100 100 93 48 25 56 100 100 100 100 98 73 28 56 76 23 6
100 100 100 100 98 86 70 43 26 56 98 92 34 100 99 100 75 5 5 5 5 2
100 100 100 100 53 15 11 5 36 8 5 8 38 7 5 5 6 11 6 5 6 5
100 82 97 98 92 100 100 65 29 72 87 57 2 5 5 86 62 73 93 29 5 5

GFSNIL_prec_cloud_285.txt.gz
Cloud_Cover
0 0 0 0 0 5 4 5 5 0 5 72 96 90 60 12 5 2 0 0 1 5
2 4 0 0 0 1 5 40 25 2 0 5 66 100 78 5 8 5 2 1 0 0
44 3 0 0 0 0 0 4 56 4 0 2 4 12 71 14 5 8 7 5 7 5
71 39 37 4 2 0 5 5 5 3 3 0 5 4 10 7 21 14 42 42 24 5
100 100 5 5 0 0 0 1 5 5 10 10 6 11 1 5 29 3 4 5 26 22
100 100 100 98 78 2 6 28 30 12 2 13 22 16 7 0 0 0 0 0 5 100
100 100 100 100 100 97 66 77 25 27 2 3 5 5 5 5 0 0 0 0 0 23
100 100 100 100 100 100 100 68 12 2 0 0 0 5 5 5 5 2 5 32 74 45
100 100 100 100 100 100 81 12 5 26 2 0 5 5 5 8 19 15 10 5 27 37
100 100 100 100 100 100 83 53 43 11 18 5 5 5 9 6 5 4 7 5 5 5
100 100 100 100 100 100 100 100 100 100 100 100 100 88 59 48 26 5 0 0 0 2
100 100 100 100 100 100 100 100 29 17 5 9 10 14 4 0 0 0 0 0 0 0
98 100 100 100 100 85 59 44 2 2 4 65 0 0 0 0 0 0 0 0 0 0
100 100 100 100 95 82 30 4 8 8 5 3 2 0 0 0 0 2 8 1 0 0

GFSNIL_prec_cloud_291.txt.gz
Cloud_Cover
0 17 32 0 100 29 15 99 90 28 5 5 4 10 0 62 95 99 26 8 11 0
5 36 73 8 0 15 48 4 0 0 1 16 26 8 0 69 17 18 94 81 6 1
16 71 73 5 3 2 3 1 12 25 80 37 57 27 42 0 8 0 0 27 77 62
92 81 48 92 0 0 11 17 50 9 29 46 94 90 66 11 18 0 0 3 4 6
100 100 98 51 6 5 14 20 55 56 16 100 98 83 5 4 4 5 5 5 5 5
100 100 100 98 12 9 92 42 69 83 22 43 11 0 0 1 1 5 5 5 3 0
100 100 100 96 95 86 48 33 95 47 41 8 11 75 5 5 1 6 3 4 5 5
100 100 100 100 100 95 100 100 100 65 98 98 100 100 96 94 100 46 5 4 0 0
100 52 69 100 100 100 100 99 98 100 100 100 100 100 100 100 97 5 5 0 4 4
99 31 90 98 100 100 99 100 100 100 100 100 100 100 87 28 72 89 17 5 3 0
87 98 97 100 100 100 100 100 100 100 100 100 100 100 98 58 30 0 0 0 0 0
100 86 86 100 72 65 87 100 100 94 100 75 12 5 1 0 0 0 0 0 0 0
100 99 98 100 83 100 78 92 100 5 10 5 5 0 0 1 0 0 0 0 0 0
100 100 100 100 100 100 40 11 36 12 48 29 5 1 4 0 0 0 0 4 5 2